K5AGY Weather Reports


time (UTC)temp
C
wind
direction
speed
KPH
gust
KPH
rain 1hr
cm
rain 24hr
cm
rain mn
cm
humidity
%
barometer
mb
20260502123102 11 1 8.0 16.1 0.00 4.57 0.00 80 1020.3
20260502121527 11 330 8.0 14.5 0.00 4.57 0.00 80 1020.0
20260502114530 11 353 11.3 20.9 0.00 5.03 0.00 81 1019.6
20260502113003 10 345 8.0 17.7 0.00 5.03 0.00 81 1019.5
20260502111541 10 329 11.3 19.3 0.00 5.03 0.00 82 1019.3
20260502110007 10 356 9.7 16.1 0.00 5.03 0.00 82 1019.1
20260502104550 10 335 4.8 12.9 0.00 6.40 0.00 83 1019.1
20260502103014 10 338 1.6 4.8 0.00 6.40 0.00 83 1018.9
20260502101611 10 340 0.0 3.2 0.00 6.40 0.00 83 1018.8
20260502071513 11 354 11.3 20.9 0.00 7.95 0.00 80 1017.2
20260502070150 12 355 12.9 20.9 0.00 7.95 0.00 80 1017.1
20260502064522 12 326 16.1 25.7 0.00 7.95 0.00 80 1016.9
20260502063056 12 46 14.5 24.1 0.00 7.95 0.00 79 1016.6
20260502061526 12 351 11.3 29.0 0.00 7.95 0.00 78 1017.1
20260502060058 12 12 11.3 27.4 0.00 7.95 0.00 78 1017.4
20260502054526 12 338 11.3 19.3 0.00 7.95 0.00 79 1017.3
20260502053114 13 330 11.3 20.9 0.00 7.95 0.00 80 1017.2
20260502051534 13 38 9.7 19.3 0.00 7.95 0.00 80 1017.0
20260502050101 13 14 9.7 17.7 0.00 7.95 0.00 80 1017.0
20260502044533 13 25 11.3 25.7 0.00 8.03 7.95 79 1017.1
20260502043005 13 17 16.1 32.2 0.00 8.03 7.95 78 1016.9
20260502041542 13 23 14.5 24.1 0.00 8.03 7.95 80 1016.7
20260502040005 13 349 12.9 24.1 0.00 8.03 7.95 80 1016.5
20260502034538 13 338 11.3 22.5 0.00 8.10 7.95 80 1016.3
20260502033011 13 15 9.7 22.5 0.00 8.10 7.95 80 1016.3
20260502031549 13 342 12.9 22.5 0.00 8.10 7.95 80 1016.0
20260502030016 13 33 11.3 29.0 0.00 8.10 7.95 80 1015.9
20260502024548 13 9 17.7 33.8 0.00 8.10 7.95 80 1015.8
20260502023018 13 328 17.7 32.2 0.00 8.10 7.95 80 1015.5
20260502021545 13 345 19.3 32.2 0.00 8.10 7.95 81 1015.0
20260502020013 13 2 16.1 32.2 0.00 8.10 7.95 81 1014.7
20260502014543 13 3 20.9 32.2 0.00 8.10 7.95 82 1014.4
20260502013011 14 3 14.5 20.9 0.00 8.10 7.95 83 1014.1
20260502011543 14 350 11.3 25.7 0.00 8.10 7.95 83 1013.7
20260502010010 14 9 16.1 29.0 0.00 8.10 7.95 83 1013.4
20260502004607 14 14 17.7 29.0 0.00 8.10 7.95 83 1013.3
20260502003029 14 328 20.9 30.6 0.00 8.10 7.95 86 1013.2
20260502001502 14 341 12.9 22.5 0.05 8.10 7.95 86 1013.0
20260502000040 14 338 12.9 27.4 0.13 8.10 7.95 86 1013.2
20260501234514 14 359 17.7 35.4 0.15 8.10 7.95 86 1013.1
20260501233046 15 350 11.3 24.1 0.13 8.08 7.92 86 1013.3
20260501231520 15 354 16.1 24.1 0.10 8.05 7.90 86 1012.8
20260501230050 15 343 19.3 29.0 0.03 7.98 7.82 84 1012.0
20260501224524 15 340 20.9 33.8 0.03 7.95 7.80 84 1012.2
20260501223110 15 11 16.1 25.7 0.03 7.95 7.80 84 1012.1
20260501221533 15 332 9.7 25.7 0.03 7.95 7.80 86 1012.0
20260501220016 15 2 12.9 27.4 0.00 7.92 7.77 86 1011.3
20260501214548 15 348 11.3 27.4 0.00 7.92 7.77 86 1011.0
20260501213024 15 330 16.1 25.7 0.00 7.92 7.77 86 1010.3
20260501211502 15 345 16.1 29.0 0.00 7.92 7.77 86 1009.1
20260501210040 15 336 16.1 33.8 0.00 7.92 7.77 86 1009.1
20260501204514 15 11 17.7 33.8 0.00 7.92 7.77 86 1009.5
20260501203101 16 355 16.1 40.2 0.03 7.92 7.77 86 1009.6
20260501201524 16 10 17.7 32.2 0.05 7.92 7.77 86 1009.9
20260501194536 16 7 17.7 29.0 0.79 7.92 7.77 86 1010.4
20260501193014 15 6 16.1 25.7 0.86 7.90 7.75 86 1010.1
20260501191550 15 340 14.5 29.0 0.86 7.87 7.72 86 1011.3
20260501190025 16 283 8.0 17.7 0.76 7.77 7.62 86 1011.6
20260501184606 16 311 9.7 29.0 0.10 7.11 6.96 86 1010.3
20260501183027 16 18 14.5 22.5 0.03 7.04 6.88 86 1008.7
20260501181600 16 6 8.0 14.5 0.00 7.01 6.86 86 1008.8
20260501180038 16 35 8.0 17.7 0.00 7.01 6.86 86 1008.9
20260501174512 16 56 4.8 16.1 0.03 7.01 6.86 86 1008.7
20260501173109 16 5 9.7 20.9 0.03 7.01 6.86 86 1009.6
20260501171530 16 8 9.7 19.3 0.15 7.01 6.86 86 1009.3
20260501170004 16 36 9.7 22.5 0.51 7.01 6.86 86 1009.6
20260501164554 16 26 6.4 24.1 0.69 6.99 6.83 86 1009.0
20260501163017 16 343 8.0 22.5 0.76 6.99 6.83 86 1010.5
20260501161559 16 68 11.3 24.1 0.71 6.86 6.71 86 1010.0
20260501160030 16 23 12.9 20.9 0.36 6.50 6.35 86 1011.4
20260501154601 16 2 14.5 22.5 0.23 6.30 6.15 86 1011.3
20260501153037 16 13 9.7 19.3 0.28 6.22 6.07 86 1011.4
20260501151510 16 357 6.4 17.7 0.97 6.15 5.99 86 1012.1
20260501150050 16 31 8.0 24.1 1.30 6.15 5.99 86 1012.0
20260501144523 16 328 8.0 24.1 1.40 6.07 5.92 86 1012.1
20260501143129 16 321 9.7 22.5 1.30 5.94 5.77 86 1012.9